Erzurum Bolge, Turkey

8:11 AM +03 on December 04, 2016 (GMT +0300)
Erzurum

Weather History for LTCE - January, 2013

Change the Weather History Date:

Monday, January 21, 2013

  Actual Average Record
Temperature  
Mean Temperature 25 °F -  
Max Temperature 38 °F 19 °F 39 °F (2005)
Min Temperature 10 °F 0 °F -27 °F (2012)
Degree Days  
Heating Degree Days 40    
Moisture  
Dew Point 23 °F    
Average Humidity 85    
Maximum Humidity 100    
Minimum Humidity 59    
Precipitation  
Precipitation 0.00 in - - ()
Sea Level Pressure  
Sea Level Pressure 30.13 in    
Wind  
Wind Speed 6 mph ()    
Max Wind Speed 12 mph    
Max Gust Speed -    
Visibility 5.7 miles    
Events Fog , Snow    
Averages and records for this station are not official NWS values.
T = Trace of Precipitation, MM = Missing Value Source: Averaged Metar Reports

Daily Weather History Graph

Daily Weather History Graph

Search for Another Location

Airport or City:

Trip Planner

Search our weather history database for the weather conditions in past years. The results will help you decide how hot, cold, wet, or windy it might be!

Date:

Astronomy

Jan. 21, 2013 Rise Set
Actual Time 6:32 AM EET 4:21 PM EET
Civil Twilight 6:02 AM EET 4:50 PM EET
Nautical Twilight 5:29 AM EET 5:23 PM EET
Astronomical Twilight 4:57 AM EET 5:56 PM EET
Moon 11:46 AM EET (1/21) 1:40 AM EET (1/21)
Length of Visible Light 10h 47m
Length of Day
9h 49m
Waxing Gibbous, 72% of the Moon is Illuminated
Jan 21
Waxing Gibbous
Jan 27
Full
Feb 3
Last Quarter
Feb 10
New
Feb 17
First Quarter

Hourly Weather History & Observations

Time (EET) Temp. Windchill Dew Point Humidity Pressure Visibility Wind Dir Wind Speed Gust Speed Precip Events Conditions
12:20 AM 24.8 °F 14.6 °F 19.4 °F 80% 30.04 in 6.2 mi West 10.4 mph - N/A   Scattered Clouds
12:50 AM 26.6 °F 16.2 °F 19.4 °F 74% 30.04 in 6.2 mi WSW 11.5 mph - N/A   Mostly Cloudy
1:20 AM 24.8 °F 15.3 °F 19.4 °F 80% 30.06 in 6.2 mi WSW 9.2 mph - N/A   Mostly Cloudy
1:50 AM 24.8 °F 17.9 °F 21.2 °F 86% 30.09 in 6.2 mi West 5.8 mph - N/A   Mostly Cloudy
2:00 AM 24 °F - 21 °F 85%  in 12 mi West 5.8 mph - -   Partly Cloudy
2:20 AM 23.0 °F 17.0 °F 21.2 °F 93% 30.09 in 6.2 mi West 4.6 mph - N/A Snow Light Snow
2:50 AM 24.8 °F 19.1 °F 21.2 °F 86% 30.09 in 6.2 mi SW 4.6 mph - N/A Snow Light Snow
3:20 AM 24.8 °F 19.1 °F 21.2 °F 86% 30.09 in 6.2 mi SW 4.6 mph - N/A Snow Light Snow
3:50 AM 26.6 °F 18.2 °F 21.2 °F 80% 30.06 in 6.2 mi WSW 8.1 mph - N/A Snow Light Snow
4:20 AM 26.6 °F 16.8 °F 21.2 °F 80% 30.06 in 6.2 mi West 10.4 mph - N/A Snow Light Snow
4:50 AM 26.6 °F 21.2 °F 21.2 °F 80% 30.09 in 6.2 mi WNW 4.6 mph - N/A Snow Light Snow
5:20 AM 26.6 °F - 21.2 °F 80% 30.09 in 6.2 mi Variable 1.2 mph - N/A Snow Light Snow
5:50 AM 26.6 °F 22.6 °F 21.2 °F 80% 30.09 in 6.2 mi WSW 3.5 mph - N/A Snow Light Snow
6:20 AM 26.6 °F 17.5 °F 23.0 °F 86% 30.09 in 6.2 mi WSW 9.2 mph - N/A Snow Light Snow
6:50 AM 30.2 °F 21.9 °F 23.0 °F 75% 30.09 in 6.2 mi WSW 9.2 mph - N/A   Mostly Cloudy
7:20 AM 28.4 °F 20.4 °F 24.8 °F 86% 30.12 in 6.2 mi West 8.1 mph - N/A   Mostly Cloudy
7:50 AM 30.2 °F 21.3 °F 24.8 °F 80% 30.12 in 6.2 mi West 10.4 mph - N/A   Mostly Cloudy
8:00 AM 29 °F - 25 °F 78%  in 12 mi West 10.4 mph - -   Partly Cloudy
8:20 AM 30.2 °F 20.8 °F 26.6 °F 86% 30.12 in 6.2 mi WSW 11.5 mph - N/A Snow Light Snow
8:50 AM 30.2 °F 21.9 °F 24.8 °F 80% 30.15 in 6.2 mi West 9.2 mph - N/A   Mostly Cloudy
9:20 AM 30.2 °F 21.9 °F 26.6 °F 86% 30.15 in 6.2 mi West 9.2 mph - N/A   Mostly Cloudy
9:50 AM 30.2 °F 22.6 °F 26.6 °F 86% 30.15 in 6.2 mi WSW 8.1 mph - N/A   Mostly Cloudy
10:20 AM 32.0 °F 24.2 °F 26.6 °F 80% 30.15 in 6.2 mi WSW 9.2 mph - N/A   Mostly Cloudy
10:50 AM 33.8 °F 27.0 °F 26.6 °F 75% 30.15 in 6.2 mi West 8.1 mph - N/A   Mostly Cloudy
11:20 AM 33.8 °F 30.8 °F 28.4 °F 81% 30.15 in 6.2 mi South 3.5 mph - N/A   Mostly Cloudy
11:50 AM 33.8 °F 28.6 °F 28.4 °F 81% 30.12 in 6.2 mi West 5.8 mph - N/A   Mostly Cloudy
12:20 PM 35.6 °F 28.0 °F 28.4 °F 75% 30.12 in 6.2 mi WNW 10.4 mph - N/A   Mostly Cloudy
12:50 PM 33.8 °F 26.4 °F 28.4 °F 81% 30.12 in 6.2 mi WSW 9.2 mph - N/A   Mostly Cloudy
1:20 PM 35.6 °F 31.7 °F 28.4 °F 75% 30.12 in 6.2 mi West 4.6 mph - N/A   Mostly Cloudy
1:50 PM 39.2 °F - 28.4 °F 65% 30.12 in 6.2 mi Variable 2.3 mph - N/A   Mostly Cloudy
2:00 PM 38 °F - 29 °F 59%  in 12 mi SSW 2.3 mph - -   Partly Cloudy
2:20 PM 35.6 °F 32.8 °F 28.4 °F 75% 30.12 in 6.2 mi WSW 3.5 mph - N/A   Mostly Cloudy
2:50 PM 33.8 °F 28.6 °F 28.4 °F 81% 30.12 in 6.2 mi WSW 5.8 mph - N/A   Mostly Cloudy
3:20 PM 33.8 °F 26.4 °F 28.4 °F 81% 30.12 in 6.2 mi West 9.2 mph - N/A   Mostly Cloudy
3:50 PM 33.8 °F 29.6 °F 28.4 °F 81% 30.15 in 6.2 mi SW 4.6 mph - N/A   Mostly Cloudy
4:20 PM 32.0 °F 28.7 °F 28.4 °F 87% 30.15 in 6.2 mi West 3.5 mph - N/A   Mostly Cloudy
4:50 PM 30.2 °F 25.4 °F 28.4 °F 93% 30.15 in 6.2 mi North 4.6 mph - N/A   Mostly Cloudy
5:20 PM 28.4 °F - 26.6 °F 93% 30.15 in 6.2 mi Variable 2.3 mph - N/A   Mostly Cloudy
5:50 PM 26.6 °F 22.6 °F 26.6 °F 100% 30.18 in 6.2 mi East 3.5 mph - N/A   Scattered Clouds
6:20 PM 24.8 °F 20.5 °F 24.8 °F 100% 30.18 in 6.2 mi NE 3.5 mph - N/A   Scattered Clouds
6:50 PM 24.8 °F 19.1 °F 23.0 °F 93% 30.18 in 6.2 mi ENE 4.6 mph - N/A   Scattered Clouds
7:20 PM 23.0 °F 18.4 °F 23.0 °F 100% 30.18 in 6.2 mi NE 3.5 mph - N/A   Scattered Clouds
7:50 PM 21.2 °F - 21.2 °F 100% 30.21 in 3.7 mi Variable 2.3 mph - N/A   Partly Cloudy
8:00 PM 21 °F - 21 °F 100%  in 4 mi SSE 2.3 mph - -   Mist
8:20 PM 17.6 °F - 15.8 °F 93% 30.21 in 2.5 mi NW 1.2 mph - N/A   Partly Cloudy
8:50 PM 19.4 °F 14.3 °F 19.4 °F 100% 30.21 in 1.0 mi WSW 3.5 mph - N/A   Partly Cloudy
9:20 PM 15.8 °F - 15.8 °F 100% 30.21 in - Variable 2.3 mph - N/A Fog Light Freezing Fog
9:50 PM 14.0 °F 6.5 °F 14.0 °F 100% 30.21 in 0.2 mi West 4.6 mph - N/A Fog Light Freezing Fog
10:20 PM 14.0 °F 8.2 °F 12.2 °F 93% 30.21 in 0.2 mi WSW 3.5 mph - N/A Fog Light Freezing Fog
10:50 PM 14.0 °F - 12.2 °F 93% 30.18 in 0.2 mi Variable 2.3 mph - N/A Fog Light Freezing Fog
11:20 PM 12.2 °F - 10.4 °F 92% 30.18 in 0.2 mi Variable 1.2 mph - N/A Fog Light Freezing Fog
11:50 PM 10.4 °F - 10.4 °F 100% 30.18 in 0.2 mi Variable 1.2 mph - N/A Fog Light Freezing Fog